カタログに戻る

STARLINK-30248

運用中通信VLEO
NORAD 57610·PAYLOAD·🇺🇸 United States

打ち上げ Aug 11, 2023 から Cape Canaveral Space Force Station

Loading…

次のパス (今後24時間)

TLE

最新Source: CelesTrak SupGP

元期: Sep 15, 2026, 01:42 UTC

1 57610C 23119J   26258.07131944  .00038721  00000+0  14022-2 0  2586
2 57610  43.0032  91.6768 0001590 273.2715 108.0662 15.27565581    11

AllMySatでSTARLINK-30248をリアルタイム追跡

Download on the App Store